Address 0xe4ef74629a9da7dfd2a940c4bfba56d3b8110769 9

Txn Hash Method
Block
From
To
Value [Txn Fee]
0x60384d104ca32d7e2a790082afb659c8f52f5d891d2efa7e665256e897b72f210xe84423c326744992022-09-30 11:22:541 hr 2 mins ago0xe4ef74629a9da7dfd2a940c4bfba56d3b8110769OUT 0xb653eab3a1f8bfe3f67831d05749d6c81f29549a0 MOVR0.000325452
0x9d8b5b00d8e7045e0328f06619b16dca96809477ee610149cd6aad1917ee10f20xe84423c326744792022-09-30 11:18:541 hr 6 mins ago0xe4ef74629a9da7dfd2a940c4bfba56d3b8110769OUT 0xb653eab3a1f8bfe3f67831d05749d6c81f29549a0 MOVR0.000427145
0xfc2e1070aeb1eb4ab22067669779b60b1f2c6a935f89c6f2f5e23b4a038f4ced0xe84423c326744772022-09-30 11:18:301 hr 7 mins ago0xe4ef74629a9da7dfd2a940c4bfba56d3b8110769OUT 0xb653eab3a1f8bfe3f67831d05749d6c81f29549a0 MOVR0.000363587
0x777b4049d7c342c5792eea9a4a1043d4bd48930c2769e600870e1be2ee905a090xe84423c326744722022-09-30 11:17:301 hr 8 mins ago0xe4ef74629a9da7dfd2a940c4bfba56d3b8110769OUT 0xb653eab3a1f8bfe3f67831d05749d6c81f29549a0 MOVR0.000363587
0x545b4c150c91b284f8b1bb53ea631c6b276c80bd978aea8f2eedcd448ada53ca0xe84423c326744622022-09-30 11:15:301 hr 10 mins ago0xe4ef74629a9da7dfd2a940c4bfba56d3b8110769OUT 0xb653eab3a1f8bfe3f67831d05749d6c81f29549a0 MOVR0.000365952
0xf8695285fc26a80737402010152ad15000045c8bf397849be443b20055ea841c0xe84423c326744542022-09-30 11:13:421 hr 11 mins ago0xe4ef74629a9da7dfd2a940c4bfba56d3b8110769OUT 0xb653eab3a1f8bfe3f67831d05749d6c81f29549a0 MOVR0.000363587
0xf4eaa04e47acbcadb902c6332dc008b90fef0fc4314ff26be31ade66a8150b7f0xe84423c326743482022-09-30 10:51:361 hr 33 mins ago0xe4ef74629a9da7dfd2a940c4bfba56d3b8110769OUT 0xb653eab3a1f8bfe3f67831d05749d6c81f29549a0 MOVR0.000853328
0x9159c6a0c3d9373c7069e7f7d00b9c9bb556db4c522c131c1d98567a488ecdb70xe84423c326740042022-09-30 9:40:482 hrs 44 mins ago0xe4ef74629a9da7dfd2a940c4bfba56d3b8110769OUT 0xb653eab3a1f8bfe3f67831d05749d6c81f29549a0 MOVR0.000628282
0x010ca259cf9bfa20e055e8d5d280892f8e81c16be05f5d998f7ca8b15780a5910xe84423c326740022022-09-30 9:40:242 hrs 45 mins ago0xe4ef74629a9da7dfd2a940c4bfba56d3b8110769OUT 0xb653eab3a1f8bfe3f67831d05749d6c81f29549a0 MOVR0.000436256
0xedb693cec9d0682526f22473cba5d4d600f70910655788994d8c77c51534794e0xe84423c326734742022-09-30 7:52:004 hrs 33 mins ago0xe4ef74629a9da7dfd2a940c4bfba56d3b8110769OUT 0xb653eab3a1f8bfe3f67831d05749d6c81f29549a0 MOVR0.000533772
0x9e88d6f195ce5983aba3c81a63cacf04b64d6fbc6788c452b66feddbfd1c3bd40xe84423c326729652022-09-30 6:07:486 hrs 17 mins ago0xe4ef74629a9da7dfd2a940c4bfba56d3b8110769OUT 0xb653eab3a1f8bfe3f67831d05749d6c81f29549a0 MOVR0.000533772
0x909c66674377e00c0c0896f0bfdb5de4d887f1080008ef10b1b2ed8de81c0ca00xe84423c326729632022-09-30 6:07:186 hrs 18 mins ago0xe4ef74629a9da7dfd2a940c4bfba56d3b8110769OUT 0xb653eab3a1f8bfe3f67831d05749d6c81f29549a0 MOVR0.000347305
0xf56d7415d660085c58f9f712529334ca83e3c7e0f86e02aabb30e6f08db40f2e0xe84423c326729612022-09-30 6:06:546 hrs 18 mins ago0xe4ef74629a9da7dfd2a940c4bfba56d3b8110769OUT 0xb653eab3a1f8bfe3f67831d05749d6c81f29549a0 MOVR0.000456908
0x47d0f5faa057d632396b74a18024715a6ca8386ab185f1cd081745d8b40f69930xe84423c326727862022-09-30 5:30:426 hrs 54 mins ago0xe4ef74629a9da7dfd2a940c4bfba56d3b8110769OUT 0xb653eab3a1f8bfe3f67831d05749d6c81f29549a0 MOVR0.000533772
0xdf61c38fe90588bcca10f3c9a2f6d94b0848388ff08dfd09c9f1b8328e79b5590xe84423c326702102022-09-29 20:40:4815 hrs 44 mins ago0xe4ef74629a9da7dfd2a940c4bfba56d3b8110769OUT 0xb653eab3a1f8bfe3f67831d05749d6c81f29549a0 MOVR0.000375429
0xa4efffc517d5e2cf0df0de98a9150c015c940558dead3e37620c6518659f63580xe84423c326701712022-09-29 20:32:3615 hrs 52 mins ago0xe4ef74629a9da7dfd2a940c4bfba56d3b8110769OUT 0xb653eab3a1f8bfe3f67831d05749d6c81f29549a0 MOVR0.000396109
0xd10dfe840ce7c7afe63ce68a95b0972bc3a1d35ea8eda6fb605883e5e04992b50xe84423c326701292022-09-29 20:23:5416 hrs 1 min ago0xe4ef74629a9da7dfd2a940c4bfba56d3b8110769OUT 0xb653eab3a1f8bfe3f67831d05749d6c81f29549a0 MOVR0.000325452
0x999e67e5b8f0d54fe62d8e3b680b32d6644aeb0d7cd7f08a4266b4ac7fed59420xe84423c326701272022-09-29 20:23:3016 hrs 2 mins ago0xe4ef74629a9da7dfd2a940c4bfba56d3b8110769OUT 0xb653eab3a1f8bfe3f67831d05749d6c81f29549a0 MOVR0.000261128
0xabe8611ae0a45bf923989150c0059e6337cf5aa7f83a09ae9d43b7f2103f59100xe84423c326700322022-09-29 20:04:1816 hrs 21 mins ago0xe4ef74629a9da7dfd2a940c4bfba56d3b8110769OUT 0xb653eab3a1f8bfe3f67831d05749d6c81f29549a0 MOVR0.000490976
0x48af99b5bc8a987025ca8c80ea7b134d8633eba1ca6441692828765a5b1c94b10xe84423c326699162022-09-29 19:39:1216 hrs 46 mins ago0xe4ef74629a9da7dfd2a940c4bfba56d3b8110769OUT 0xb653eab3a1f8bfe3f67831d05749d6c81f29549a0 MOVR0.000261128
0xdfd8ea1b50c7819c36216058081d9535f78c3c80189ddc426ca4238a5f5029600xe84423c326696142022-09-29 18:36:5417 hrs 48 mins ago0xe4ef74629a9da7dfd2a940c4bfba56d3b8110769OUT 0xb653eab3a1f8bfe3f67831d05749d6c81f29549a0 MOVR0.000489924
0xac326e80f940efff485a24ca7a467ae18aa23960ef3864e948b0f042ae913cea0xe84423c326692012022-09-29 17:11:0619 hrs 14 mins ago0xe4ef74629a9da7dfd2a940c4bfba56d3b8110769OUT 0xb653eab3a1f8bfe3f67831d05749d6c81f29549a0 MOVR0.000337022
0x54ff47b4d13e5aa0fdc4be0d3389fca5ca3801c62a9505dbe2e25b94bbbfc1900xe84423c326690862022-09-29 16:47:0619 hrs 38 mins ago0xe4ef74629a9da7dfd2a940c4bfba56d3b8110769OUT 0xb653eab3a1f8bfe3f67831d05749d6c81f29549a0 MOVR0.000561446
0xfbc3b682770fa113437ae78d771ce48a2d767b1c01ff35fe2b99bb923ececbf40xe84423c326690732022-09-29 16:44:0019 hrs 41 mins ago0xe4ef74629a9da7dfd2a940c4bfba56d3b8110769OUT 0xb653eab3a1f8bfe3f67831d05749d6c81f29549a0 MOVR0.000533772
0x12cea107e04a2935a9ee3510e21fa8834332d61cd904774a095d58d30f9bb5270xe84423c326690582022-09-29 16:41:0019 hrs 44 mins ago0xe4ef74629a9da7dfd2a940c4bfba56d3b8110769OUT 0xb653eab3a1f8bfe3f67831d05749d6c81f29549a0 MOVR0.000323608
[ Download CSV Export 
Latest 8 internal transactions
Parent Txn Hash Block From To Value
0x56667a187e9012cf09ab0bd9a226b53d122ec7a32d86cbb1aba0a38ec1dd86f526152462022-09-21 21:35:488 days 14 hrs ago 0x98878b06940ae243284ca214f92bb71a2b032b8a0xe4ef74629a9da7dfd2a940c4bfba56d3b811076913.223037240438821347 MOVR
0x136ad48331265a54eb1755a939c00c5bf5616a492f2382a408ab313ab474815f21403812022-07-04 7:37:3688 days 4 hrs ago 0xf50225a84382c74cbdea10b0c176f71fc3de0c4d0xe4ef74629a9da7dfd2a940c4bfba56d3b81107690.519945760967090173 MOVR
0xb51358630ab2e13dd21a1411c071a214dd326416badfa4b8d95ccc2fa25d634021403782022-07-04 7:37:0088 days 4 hrs ago 0x98878b06940ae243284ca214f92bb71a2b032b8a0xe4ef74629a9da7dfd2a940c4bfba56d3b81107697.211943678881559496 MOVR
0xae5e68fad9e0607014202dd53b91f0442e3e1a3f5d579efeffd9bfe46ec8d3a919956332022-06-10 12:43:00111 days 23 hrs ago 0xf50225a84382c74cbdea10b0c176f71fc3de0c4d0xe4ef74629a9da7dfd2a940c4bfba56d3b81107690.842436566548327666 MOVR
0x82356ad3c4d2fc58b960e989ce2f28b580207befa48e8e733e9691862901b8a319279482022-05-30 18:37:36122 days 17 hrs ago 0x98878b06940ae243284ca214f92bb71a2b032b8a0xe4ef74629a9da7dfd2a940c4bfba56d3b81107696.852013116702187241 MOVR
0xe69eb72e4d0d0f502e07e27da10b53ba5e046bb2abe3b37af5be94c0355c232118100172022-05-11 19:22:54141 days 17 hrs ago 0x98878b06940ae243284ca214f92bb71a2b032b8a0xe4ef74629a9da7dfd2a940c4bfba56d3b81107691.959333833560973915 MOVR
0x06d97ceed0e418eac361581c2fdfd88a1607e5a9a6e525403b1213d6360e741318100112022-05-11 19:20:42141 days 17 hrs ago 0xf50225a84382c74cbdea10b0c176f71fc3de0c4d0xe4ef74629a9da7dfd2a940c4bfba56d3b81107691.048224776200396043 MOVR
0x809daa73157f92e2a5d081cbae1506d1b1b33386e0771d79ab63a13f11d6273017831932022-05-05 16:55:00147 days 19 hrs ago Huckleberry Finance: Router0xe4ef74629a9da7dfd2a940c4bfba56d3b81107691.516061834206806241 MOVR
[ Download CSV Export 
Loading

Contract Name:
0

Compiler Version
0

Optimization Enabled:
0

Other Settings:
-NA-
Block Transaction Gas Used Reward
Age Block Fee Address BC Fee Address Voting Power Jailed Incoming
Block Uncle Number Difficulty Gas Used Reward
Loading
Loading
Make sure to use the "Vote Down" button for any spammy posts, and the "Vote Up" for interesting conversations.